Regional Weather Roundup
Issued by NWS

Home | Current Version | Previous Version | Text Only | Print | Product List | Glossary On
Versions: 1 2 3 4 5 6 7 8 9 10 11 12 13 14 15 16 17 18 19 20 21 22 23 24 25 26 27 28
000
ASUS46 KPQR 250810
RWROR

OREGON REGIONAL WEATHER ROUNDUP
NATIONAL WEATHER SERVICE PORTLAND OR
100 AM PDT SAT OCT 25 2014

NOTE: "FAIR" INDICATES FEW OR NO CLOUDS BELOW 12,000 FEET WITH
NO SIGNIFICANT WEATHER AND/OR OBSTRUCTIONS TO VISIBILITY.

ORZ001>013-250900-
NORTHWEST OREGON


CITY           SKY/WX    TMP DP  RH WIND       PRES   REMARKS
ASTORIA        CLOUDY    56  49  77 SE6       29.60F
NEWPORT        CLOUDY    54  50  87 E14       29.60F
PORTLAND       CLOUDY    50  50 100 W5        29.65F
VANCOUVER WA   CLOUDY    50  49  96 CALM      29.65F
SCAPPOOSE      CLOUDY    50  48  93 W5        29.65F
HILLSBORO      CLOUDY    49  49 100 NW6       29.65F
AURORA         CLOUDY    50  48  93 CALM      29.64F
MCMINNVILLE    CLOUDY    51  49  92 N7        29.64F
SALEM          FOG       49  47  93 CALM      29.63F VSB 1/4
CORVALLIS      CLOUDY    52  48  87 CALM      29.65F
EUGENE         CLOUDY    51  50  96 N5        29.64F FOG
$$

ORZ021-028-250900-
SOUTHWEST OREGON


CITY           SKY/WX    TMP DP  RH WIND       PRES   REMARKS
NORTH BEND     PTCLDY    54  54 100 SE7       29.57F
BROOKINGS      LGT RAIN  62  54  75 SE10G16   29.58F
ROSEBURG       CLOUDY    54  52  93 SW5       29.63S FOG
SEXTON SUMMIT  MOCLDY    49  43  80 SE15G23   29.66F
MEDFORD        PTCLDY    51  50  96 CALM      29.62F FOG
$$

ORZ009-041-250900-
COLUMBIA GORGE


CITY           SKY/WX    TMP DP  RH WIND       PRES   REMARKS
TROUTDALE      CLOUDY    56  48  74 E20G26    29.63F
THE DALLES     CLOUDY    52  50  93 CALM      29.82F
$$

ORZ029>031-042>050-061>064-250900-
EASTERN OREGON


CITY           SKY/WX    TMP DP  RH WIND       PRES   REMARKS
REDMOND        CLOUDY    45  44  97 CALM      29.79F FOG
BEND           CLOUDY    45  45 100 CALM      29.81F
KLAMATH FALLS  MOCLDY    53  36  52 S13       29.82F
LAKEVIEW       MOCLDY    50  30  46 S15       29.90F
HERMISTON      CLOUDY    49  46  90 S5        29.82F
PENDLETON      CLOUDY    47  47 100 CALM      29.81F FOG
JOHN DAY       PTSUNNY   50  43  78 CALM      29.84F
MEACHAM        CLOUDY    50  44  80 CALM      29.83F
LA GRANDE      CLOUDY    45  36  70 N5        29.87F
BAKER CITY     FOG       37  37 100 CALM      29.91F VSB 1/2
BURNS          MOCLDY    38  36  92 W5        29.90F WCI  34
ROME             N/A     44  40  85 NE3       29.92S
ONTARIO        PTCLDY    46  44  93 CALM      29.93F
$$



USA.gov is the U.S. government's official web portal to all federal, state and local government web resources and services.